| time (UTC) | temp F | wind direction | speed MPH | gust MPH | rain 1hr in | rain 24hr in | rain mn in | humidity % | barometer mb |
| 20260507211158 | 54 | 293 | 4.0 | 5.0 | 0.00 | 0.00 | 0.00 | 49 | 1010.1 |
| 20260507210656 | 54 | 219 | 2.0 | 2.0 | 0.00 | 0.00 | 0.00 | 49 | 1010.0 |
| 20260507210153 | 55 | 308 | 3.0 | 3.0 | 0.00 | 0.00 | 0.00 | 49 | 1010.0 |
| 20260507205649 | 54 | 313 | 3.0 | 3.0 | 0.00 | 0.00 | 0.00 | 51 | 1010.0 |
| 20260507205146 | 54 | 74 | 1.0 | 2.0 | 0.00 | 0.00 | 0.00 | 51 | 1009.7 |
| 20260507204642 | 55 | 71 | 1.0 | 1.0 | 0.00 | 0.00 | 0.00 | 48 | 1009.8 |
| 20260507204140 | 55 | 246 | 3.0 | 3.0 | 0.00 | 0.00 | 0.00 | 48 | 1010.0 |
| 20260507203638 | 54 | 4 | 3.0 | 7.0 | 0.00 | 0.00 | 0.00 | 49 | 1010.1 |
| 20260507203135 | 54 | 215 | 5.0 | 6.0 | 0.00 | 0.00 | 0.00 | 49 | 1009.9 |
| 20260507202631 | 56 | 327 | 4.0 | 5.0 | 0.00 | 0.00 | 0.00 | 47 | 1010.1 |
| 20260507202127 | 56 | 351 | 2.0 | 3.0 | 0.00 | 0.00 | 0.00 | 48 | 1010.0 |
| 20260507201622 | 55 | 310 | 3.0 | 3.0 | 0.00 | 0.00 | 0.00 | 49 | 1010.0 |
| 20260507201120 | 56 | 118 | 1.0 | 1.0 | 0.00 | 0.00 | 0.00 | 48 | 1009.8 |
| 20260507200615 | 54 | 320 | 4.0 | 5.0 | 0.00 | 0.00 | 0.00 | 47 | 1010.0 |
| 20260507200111 | 55 | 312 | 4.0 | 5.0 | 0.00 | 0.00 | 0.00 | 46 | 1010.1 |
| 20260507195609 | 57 | 4 | 3.0 | 5.0 | 0.00 | 0.00 | 0.00 | 48 | 1010.4 |
| 20260507195106 | 58 | 117 | 0.0 | 0.0 | 0.00 | 0.00 | 0.00 | 48 | 1010.4 |
| 20260507194602 | 56 | 323 | 4.0 | 6.0 | 0.00 | 0.00 | 0.00 | 45 | 1010.6 |
| 20260507194058 | 55 | 315 | 4.0 | 6.0 | 0.00 | 0.00 | 0.00 | 47 | 1010.6 |
| 20260507193555 | 55 | 264 | 3.0 | 5.0 | 0.00 | 0.00 | 0.00 | 48 | 1010.6 |
| 20260507193052 | 53 | 276 | 6.0 | 7.0 | 0.00 | 0.00 | 0.00 | 49 | 1010.8 |
| 20260507192548 | 55 | 355 | 3.0 | 3.0 | 0.00 | 0.00 | 0.00 | 49 | 1010.7 |
| 20260507192045 | 53 | 318 | 3.0 | 5.0 | 0.00 | 0.00 | 0.00 | 50 | 1010.4 |
| 20260507191540 | 53 | 318 | 4.0 | 5.0 | 0.00 | 0.00 | 0.00 | 51 | 1010.6 |
| 20260507191038 | 53 | 270 | 1.0 | 1.0 | 0.00 | 0.00 | 0.00 | 53 | 1010.6 |
| 20260507190535 | 53 | 332 | 2.0 | 2.0 | 0.00 | 0.00 | 0.00 | 53 | 1010.6 |
| 20260507190034 | 52 | 311 | 4.0 | 6.0 | 0.00 | 0.00 | 0.00 | 52 | 1010.7 |
| 20260507185532 | 54 | 341 | 3.0 | 5.0 | 0.00 | 0.00 | 0.00 | 52 | 1010.6 |
| 20260507185028 | 53 | 211 | 3.0 | 3.0 | 0.00 | 0.00 | 0.00 | 52 | 1010.7 |
| 20260507184526 | 54 | 303 | 3.0 | 3.0 | 0.00 | 0.00 | 0.00 | 51 | 1010.6 |
| 20260507184024 | 55 | 5 | 5.0 | 7.0 | 0.00 | 0.00 | 0.00 | 48 | 1010.9 |
| 20260507183520 | 56 | 248 | 9.0 | 11.0 | 0.00 | 0.00 | 0.00 | 46 | 1011.0 |
| 20260507183017 | 56 | 306 | 1.0 | 3.0 | 0.00 | 0.00 | 0.00 | 47 | 1010.8 |
| 20260507182513 | 56 | 288 | 4.0 | 6.0 | 0.00 | 0.00 | 0.00 | 50 | 1010.8 |
| 20260507182009 | 55 | 295 | 3.0 | 3.0 | 0.00 | 0.00 | 0.00 | 49 | 1010.7 |
| 20260507181506 | 55 | 21 | 4.0 | 6.0 | 0.00 | 0.00 | 0.00 | 48 | 1010.8 |
| 20260507181003 | 54 | 290 | 5.0 | 6.0 | 0.00 | 0.00 | 0.00 | 50 | 1010.9 |
| 20260507180459 | 54 | 311 | 2.0 | 3.0 | 0.00 | 0.00 | 0.00 | 53 | 1010.8 |
| 20260507175955 | 54 | 290 | 5.0 | 6.0 | 0.00 | 0.00 | 0.00 | 49 | 1010.6 |
| 20260507175452 | 53 | 219 | 3.0 | 6.0 | 0.00 | 0.00 | 0.00 | 53 | 1010.7 |
| 20260507174949 | 53 | 257 | 5.0 | 6.0 | 0.00 | 0.00 | 0.00 | 53 | 1010.7 |
| 20260507174446 | 55 | 178 | 7.0 | 10.0 | 0.00 | 0.00 | 0.00 | 51 | 1010.9 |
| 20260507173944 | 55 | 310 | 3.0 | 5.0 | 0.00 | 0.00 | 0.00 | 50 | 1011.0 |
| 20260507173441 | 54 | 317 | 2.0 | 5.0 | 0.00 | 0.00 | 0.00 | 52 | 1011.1 |
| 20260507172938 | 54 | 328 | 3.0 | 3.0 | 0.00 | 0.00 | 0.00 | 50 | 1011.1 |
| 20260507172434 | 52 | 254 | 2.0 | 3.0 | 0.00 | 0.00 | 0.00 | 50 | 1011.4 |
| 20260507171931 | 52 | 339 | 2.0 | 2.0 | 0.00 | 0.00 | 0.00 | 51 | 1011.4 |
| 20260507171427 | 54 | 253 | 4.0 | 5.0 | 0.00 | 0.00 | 0.00 | 49 | 1011.5 |
| 20260507170924 | 54 | 340 | 2.0 | 5.0 | 0.00 | 0.00 | 0.00 | 47 | 1011.3 |
| 20260507170420 | 53 | 28 | 5.0 | 6.0 | 0.00 | 0.00 | 0.00 | 48 | 1011.7 |
| 20260507165917 | 53 | 240 | 4.0 | 6.0 | 0.00 | 0.00 | 0.00 | 50 | 1011.4 |
| 20260507165413 | 53 | 350 | 4.0 | 6.0 | 0.00 | 0.00 | 0.00 | 48 | 1011.3 |
| 20260507164908 | 54 | 351 | 1.0 | 1.0 | 0.00 | 0.00 | 0.00 | 47 | 1011.6 |
| 20260507164406 | 53 | 58 | 2.0 | 3.0 | 0.00 | 0.00 | 0.00 | 47 | 1011.5 |
| 20260507163903 | 53 | 323 | 3.0 | 5.0 | 0.00 | 0.00 | 0.00 | 49 | 1011.6 |
| 20260507163401 | 54 | 318 | 3.0 | 3.0 | 0.00 | 0.00 | 0.00 | 49 | 1011.6 |
| 20260507162857 | 54 | 287 | 4.0 | 5.0 | 0.00 | 0.00 | 0.00 | 47 | 1011.7 |
| 20260507162352 | 53 | 299 | 3.0 | 5.0 | 0.00 | 0.00 | 0.00 | 47 | 1012.1 |
| 20260507161850 | 53 | 6 | 0.0 | 1.0 | 0.00 | 0.00 | 0.00 | 49 | 1011.9 |
| 20260507161346 | 53 | 10 | 2.0 | 2.0 | 0.00 | 0.00 | 0.00 | 51 | 1011.8 |
| 20260507160843 | 53 | 25 | 0.0 | 0.0 | 0.00 | 0.00 | 0.00 | 52 | 1011.8 |
| 20260507160338 | 53 | 351 | 2.0 | 2.0 | 0.00 | 0.00 | 0.00 | 49 | 1012.2 |
| 20260507155835 | 52 | 17 | 3.0 | 5.0 | 0.00 | 0.00 | 0.00 | 48 | 1012.1 |
| 20260507155331 | 53 | 222 | 3.0 | 5.0 | 0.00 | 0.00 | 0.00 | 49 | 1011.9 |
| 20260507154828 | 53 | 186 | 1.0 | 3.0 | 0.00 | 0.00 | 0.00 | 52 | 1012.1 |
| 20260507154325 | 52 | 53 | 0.0 | 1.0 | 0.00 | 0.00 | 0.00 | 49 | 1012.1 |
| 20260507153822 | 51 | 251 | 4.0 | 5.0 | 0.00 | 0.00 | 0.00 | 49 | 1012.2 |
| 20260507153318 | 53 | 254 | 4.0 | 6.0 | 0.00 | 0.00 | 0.00 | 49 | 1012.1 |
| 20260507152815 | 53 | 236 | 3.0 | 3.0 | 0.00 | 0.00 | 0.00 | 48 | 1012.2 |
| 20260507152311 | 52 | 0 | 0.0 | 1.0 | 0.00 | 0.00 | 0.00 | 52 | 1011.8 |
| 20260507151807 | 51 | 340 | 3.0 | 3.0 | 0.00 | 0.00 | 0.00 | 50 | 1012.1 |
| 20260507151304 | 52 | 211 | 0.0 | 1.0 | 0.00 | 0.00 | 0.00 | 53 | 1012.2 |
| 20260507150801 | 51 | 280 | 1.0 | 1.0 | 0.00 | 0.00 | 0.00 | 50 | 1011.9 |
| 20260507150257 | 52 | 310 | 3.0 | 3.0 | 0.00 | 0.00 | 0.00 | 49 | 1012.4 |
| 20260507145754 | 52 | 294 | 4.0 | 6.0 | 0.00 | 0.00 | 0.00 | 48 | 1012.3 |
| 20260507145250 | 51 | 82 | 1.0 | 2.0 | 0.00 | 0.00 | 0.00 | 49 | 1012.6 |
| 20260507144747 | 50 | 290 | 2.0 | 2.0 | 0.00 | 0.00 | 0.00 | 48 | 1012.5 |
| 20260507144245 | 49 | 293 | 3.0 | 3.0 | 0.00 | 0.00 | 0.00 | 59 | 1012.5 |
| 20260507143741 | 49 | 311 | 2.0 | 2.0 | 0.00 | 0.00 | 0.00 | 58 | 1012.8 |
| 20260507143238 | 49 | 209 | 1.0 | 3.0 | 0.00 | 0.00 | 0.00 | 59 | 1012.8 |
| 20260507142734 | 50 | 70 | 1.0 | 2.0 | 0.00 | 0.00 | 0.00 | 59 | 1012.8 |
| 20260507142231 | 49 | 271 | 3.0 | 3.0 | 0.00 | 0.00 | 0.00 | 58 | 1012.8 |
| 20260507141727 | 49 | 183 | 7.0 | 7.0 | 0.00 | 0.00 | 0.00 | 56 | 1012.8 |
| 20260507141225 | 50 | 325 | 3.0 | 5.0 | 0.00 | 0.00 | 0.00 | 57 | 1012.8 |
| 20260507140720 | 49 | 341 | 2.0 | 2.0 | 0.00 | 0.00 | 0.00 | 60 | 1013.2 |
| 20260507140218 | 50 | 327 | 3.0 | 5.0 | 0.00 | 0.00 | 0.00 | 59 | 1013.2 |
| 20260507135715 | 50 | 357 | 1.0 | 2.0 | 0.00 | 0.00 | 0.00 | 59 | 1013.2 |
| 20260507135212 | 50 | 307 | 3.0 | 3.0 | 0.00 | 0.00 | 0.00 | 54 | 1013.2 |
| 20260507134708 | 48 | 204 | 2.0 | 2.0 | 0.00 | 0.00 | 0.00 | 57 | 1013.2 |
| 20260507134205 | 49 | 9 | 3.0 | 3.0 | 0.00 | 0.00 | 0.00 | 61 | 1013.2 |
| 20260507133701 | 49 | 339 | 3.0 | 3.0 | 0.00 | 0.00 | 0.00 | 58 | 1013.2 |
| 20260507133158 | 48 | 357 | 3.0 | 3.0 | 0.00 | 0.00 | 0.00 | 59 | 1013.6 |
| 20260507132655 | 48 | 306 | 2.0 | 2.0 | 0.00 | 0.00 | 0.00 | 57 | 1013.5 |
| 20260507132151 | 47 | 295 | 3.0 | 3.0 | 0.00 | 0.00 | 0.00 | 60 | 1013.5 |
| 20260507131648 | 47 | 13 | 3.0 | 3.0 | 0.00 | 0.00 | 0.00 | 59 | 1013.5 |
| 20260507131146 | 49 | 30 | 1.0 | 1.0 | 0.00 | 0.00 | 0.00 | 58 | 1013.3 |
| 20260507130642 | 47 | 329 | 2.0 | 2.0 | 0.00 | 0.00 | 0.00 | 60 | 1013.3 |
| 20260507130140 | 47 | 13 | 2.0 | 2.0 | 0.00 | 0.00 | 0.00 | 63 | 1013.3 |
| 20260507125639 | 46 | 338 | 1.0 | 1.0 | 0.00 | 0.00 | 0.00 | 59 | 1013.5 |
| 20260507125136 | 47 | 349 | 2.0 | 2.0 | 0.00 | 0.00 | 0.00 | 64 | 1013.6 |
| 20260507124632 | 47 | 306 | 3.0 | 3.0 | 0.00 | 0.00 | 0.00 | 67 | 1013.8 |
| 20260507124130 | 46 | 343 | 0.0 | 0.0 | 0.00 | 0.00 | 0.00 | 66 | 1013.5 |
| 20260507123628 | 46 | 302 | 2.0 | 2.0 | 0.00 | 0.00 | 0.00 | 67 | 1013.3 |
| 20260507123125 | 46 | 236 | 5.0 | 6.0 | 0.00 | 0.00 | 0.00 | 67 | 1013.5 |
| 20260507122620 | 45 | 301 | 2.0 | 2.0 | 0.00 | 0.00 | 0.00 | 68 | 1013.6 |
| 20260507122116 | 45 | 5 | 1.0 | 1.0 | 0.00 | 0.00 | 0.00 | 69 | 1013.3 |
| 20260507121612 | 45 | 8 | 1.0 | 1.0 | 0.00 | 0.00 | 0.00 | 75 | 1013.5 |
| 20260507121108 | 44 | 257 | 0.0 | 0.0 | 0.00 | 0.00 | 0.00 | 78 | 1013.5 |
| 20260507120604 | 44 | 315 | 1.0 | 1.0 | 0.00 | 0.00 | 0.00 | 77 | 1013.5 |
| 20260507115557 | 43 | 343 | 0.0 | 0.0 | 0.00 | 0.00 | 0.00 | 78 | 1013.2 |
| 20260507115053 | 43 | 336 | 1.0 | 1.0 | 0.00 | 0.00 | 0.00 | 82 | 1013.3 |
| 20260507114549 | 42 | 344 | 0.0 | 0.0 | 0.00 | 0.00 | 0.00 | 84 | 1013.1 |
| 20260507114047 | 42 | 356 | 0.0 | 0.0 | 0.00 | 0.00 | 0.00 | 87 | 1013.2 |
| 20260507113544 | 41 | 1 | 0.0 | 0.0 | 0.00 | 0.00 | 0.00 | 86 | 1013.2 |
| 20260507113041 | 40 | 8 | 0.0 | 0.0 | 0.00 | 0.00 | 0.00 | 89 | 1013.0 |
| 20260507112539 | 41 | 9 | 0.0 | 0.0 | 0.00 | 0.00 | 0.00 | 91 | 1013.0 |
| 20260507112035 | 40 | 9 | 0.0 | 0.0 | 0.00 | 0.00 | 0.00 | 92 | 1013.0 |
| 20260507111532 | 39 | 9 | 0.0 | 0.0 | 0.00 | 0.00 | 0.00 | 92 | 1013.0 |
| 20260507111029 | 38 | 10 | 0.0 | 0.0 | 0.00 | 0.00 | 0.00 | 95 | 1013.0 |
| 20260507110525 | 37 | 10 | 0.0 | 0.0 | 0.00 | 0.00 | 0.00 | 95 | 1012.8 |
| 20260507110022 | 37 | 10 | 0.0 | 0.0 | 0.00 | 0.00 | 0.00 | 95 | 1012.7 |
| 20260507105519 | 37 | 10 | 0.0 | 0.0 | 0.00 | 0.00 | 0.00 | 95 | 1012.8 |
| 20260507105015 | 36 | 10 | 0.0 | 0.0 | 0.00 | 0.00 | 0.00 | 95 | 1012.8 |
| 20260507104513 | 36 | 10 | 0.0 | 0.0 | 0.00 | 0.00 | 0.00 | 95 | 1012.7 |
| 20260507104009 | 35 | 10 | 0.0 | 0.0 | 0.00 | 0.00 | 0.00 | 95 | 1012.8 |
| 20260507103505 | 36 | 10 | 0.0 | 0.0 | 0.00 | 0.00 | 0.00 | 95 | 1012.5 |
| 20260507103001 | 36 | 10 | 0.0 | 0.0 | 0.00 | 0.00 | 0.00 | 95 | 1012.7 |
| 20260507102458 | 36 | 10 | 0.0 | 0.0 | 0.00 | 0.00 | 0.00 | 95 | 1012.7 |
| 20260507101955 | 36 | 10 | 0.0 | 0.0 | 0.00 | 0.00 | 0.00 | 95 | 1012.7 |
| 20260507101450 | 37 | 10 | 0.0 | 0.0 | 0.00 | 0.00 | 0.00 | 95 | 1012.5 |
| 20260507100947 | 37 | 10 | 0.0 | 0.0 | 0.00 | 0.00 | 0.00 | 95 | 1012.7 |
| 20260507100444 | 38 | 10 | 0.0 | 0.0 | 0.00 | 0.00 | 0.00 | 95 | 1012.4 |
| 20260507095942 | 37 | 10 | 0.0 | 0.0 | 0.00 | 0.00 | 0.00 | 94 | 1012.5 |
| 20260507095440 | 37 | 11 | 0.0 | 0.0 | 0.00 | 0.00 | 0.00 | 94 | 1012.4 |
| 20260507094936 | 37 | 11 | 0.0 | 0.0 | 0.00 | 0.00 | 0.00 | 94 | 1012.5 |
| 20260507094432 | 37 | 11 | 0.0 | 0.0 | 0.00 | 0.00 | 0.00 | 94 | 1012.6 |
| 20260507093929 | 38 | 11 | 0.0 | 0.0 | 0.00 | 0.00 | 0.00 | 94 | 1012.4 |
| 20260507093427 | 38 | 11 | 0.0 | 0.0 | 0.00 | 0.00 | 0.00 | 94 | 1012.4 |
| 20260507092926 | 38 | 11 | 0.0 | 0.0 | 0.00 | 0.00 | 0.00 | 94 | 1012.4 |
| 20260507092421 | 39 | 11 | 0.0 | 0.0 | 0.00 | 0.00 | 0.00 | 94 | 1012.5 |
| 20260507091918 | 39 | 11 | 0.0 | 0.0 | 0.00 | 0.00 | 0.00 | 94 | 1012.6 |
| 20260507091415 | 39 | 11 | 0.0 | 0.0 | 0.00 | 0.00 | 0.00 | 94 | 1012.6 |
| 20260507090910 | 39 | 11 | 0.0 | 0.0 | 0.00 | 0.00 | 0.00 | 93 | 1012.5 |
| 20260507090407 | 39 | 11 | 0.0 | 0.0 | 0.00 | 0.00 | 0.00 | 92 | 1012.3 |
| 20260507085904 | 39 | 11 | 0.0 | 0.0 | 0.00 | 0.00 | 0.00 | 91 | 1012.5 |
| 20260507085401 | 40 | 12 | 0.0 | 0.0 | 0.00 | 0.00 | 0.00 | 91 | 1012.3 |
| 20260507084858 | 40 | 11 | 0.0 | 0.0 | 0.00 | 0.00 | 0.00 | 89 | 1012.3 |
| 20260507084354 | 41 | 32 | 0.0 | 0.0 | 0.00 | 0.00 | 0.00 | 89 | 1012.4 |
| 20260507083852 | 40 | 23 | 0.0 | 0.0 | 0.00 | 0.00 | 0.00 | 86 | 1012.4 |
| 20260507083348 | 41 | 48 | 0.0 | 0.0 | 0.00 | 0.00 | 0.00 | 89 | 1012.4 |
| 20260507082844 | 41 | 71 | 0.0 | 0.0 | 0.00 | 0.00 | 0.00 | 89 | 1012.4 |
| 20260507082340 | 41 | 53 | 0.0 | 0.0 | 0.00 | 0.00 | 0.00 | 88 | 1012.5 |
| 20260507081837 | 41 | 68 | 0.0 | 0.0 | 0.00 | 0.00 | 0.00 | 91 | 1012.8 |
| 20260507081333 | 41 | 68 | 0.0 | 0.0 | 0.00 | 0.00 | 0.00 | 93 | 1012.6 |
| 20260507080830 | 41 | 69 | 0.0 | 0.0 | 0.00 | 0.00 | 0.00 | 92 | 1012.6 |
| 20260507080326 | 41 | 69 | 0.0 | 0.0 | 0.00 | 0.00 | 0.00 | 90 | 1012.8 |
| 20260507075822 | 42 | 69 | 0.0 | 0.0 | 0.00 | 0.00 | 0.00 | 88 | 1012.6 |
| 20260507075318 | 42 | 70 | 0.0 | 0.0 | 0.00 | 0.00 | 0.00 | 87 | 1012.6 |
| 20260507074815 | 42 | 47 | 0.0 | 0.0 | 0.00 | 0.00 | 0.00 | 87 | 1012.5 |
| 20260507074312 | 42 | 39 | 0.0 | 0.0 | 0.00 | 0.00 | 0.00 | 88 | 1012.5 |
| 20260507073809 | 42 | 39 | 0.0 | 0.0 | 0.00 | 0.00 | 0.00 | 88 | 1012.3 |
| 20260507073306 | 42 | 40 | 0.0 | 0.0 | 0.00 | 0.00 | 0.00 | 89 | 1012.3 |
| 20260507072803 | 42 | 49 | 0.0 | 0.0 | 0.00 | 0.00 | 0.00 | 88 | 1012.4 |
| 20260507072301 | 42 | 63 | 0.0 | 0.0 | 0.00 | 0.00 | 0.00 | 89 | 1012.5 |
| 20260507071758 | 42 | 27 | 2.0 | 3.0 | 0.00 | 0.00 | 0.00 | 91 | 1012.3 |
| 20260507071254 | 42 | 21 | 0.0 | 1.0 | 0.00 | 0.00 | 0.00 | 91 | 1012.2 |
| 20260507070751 | 42 | 48 | 0.0 | 0.0 | 0.00 | 0.00 | 0.00 | 91 | 1012.2 |
| 20260507070248 | 42 | 9 | 0.0 | 1.0 | 0.00 | 0.00 | 0.00 | 91 | 1012.5 |
| 20260507065745 | 42 | 17 | 0.0 | 0.0 | 0.00 | 0.00 | 0.00 | 92 | 1012.4 |
| 20260507065241 | 42 | 34 | 0.0 | 0.0 | 0.00 | 0.00 | 0.00 | 93 | 1012.5 |
| 20260507064739 | 42 | 30 | 0.0 | 0.0 | 0.00 | 0.00 | 0.00 | 94 | 1012.3 |
| 20260507064238 | 42 | 22 | 0.0 | 0.0 | 0.00 | 0.00 | 0.00 | 95 | 1012.4 |
| 20260507063735 | 42 | 14 | 0.0 | 0.0 | 0.00 | 0.00 | 0.00 | 96 | 1012.4 |
| 20260507063231 | 42 | 26 | 0.0 | 0.0 | 0.00 | 0.00 | 0.00 | 97 | 1012.4 |
| 20260507062728 | 42 | 28 | 0.0 | 0.0 | 0.00 | 0.00 | 0.00 | 98 | 1012.2 |
| 20260507062226 | 43 | 28 | 0.0 | 1.0 | 0.00 | 0.00 | 0.00 | 98 | 1012.4 |
| 20260507061723 | 42 | 36 | 0.0 | 0.0 | 0.00 | 0.00 | 0.00 | 98 | 1012.3 |
| 20260507061221 | 42 | 37 | 0.0 | 1.0 | 0.00 | 0.00 | 0.00 | 98 | 1012.6 |
| 20260507060719 | 42 | 30 | 0.0 | 0.0 | 0.00 | 0.00 | 0.00 | 99 | 1012.7 |
| 20260507060215 | 42 | 7 | 1.0 | 1.0 | 0.00 | 0.00 | 0.00 | 99 | 1012.7 |
| 20260507055711 | 42 | 8 | 0.0 | 0.0 | 0.00 | 0.00 | 0.00 | 99 | 1012.6 |
| 20260507055207 | 43 | 6 | 1.0 | 1.0 | 0.00 | 0.00 | 0.00 | 99 | 1012.5 |
| 20260507054703 | 43 | 46 | 0.0 | 0.0 | 0.00 | 0.00 | 0.00 | 99 | 1012.6 |
| 20260507054201 | 43 | 30 | 0.0 | 0.0 | 0.00 | 0.00 | 0.00 | 99 | 1012.9 |
| 20260507053658 | 43 | 3 | 0.0 | 0.0 | 0.00 | 0.00 | 0.00 | 99 | 1012.9 |
| 20260507053156 | 43 | 4 | 0.0 | 0.0 | 0.00 | 0.00 | 0.00 | 99 | 1012.9 |
| 20260507052654 | 44 | 9 | 0.0 | 0.0 | 0.00 | 0.00 | 0.00 | 99 | 1012.9 |
| 20260507052150 | 44 | 12 | 0.0 | 0.0 | 0.00 | 0.00 | 0.00 | 99 | 1013.1 |
| 20260507051648 | 44 | 41 | 0.0 | 0.0 | 0.00 | 0.00 | 0.00 | 99 | 1013.1 |
| 20260507051144 | 44 | 346 | 0.0 | 0.0 | 0.00 | 0.00 | 0.00 | 99 | 1013.0 |
| 20260507050641 | 44 | 3 | 0.0 | 0.0 | 0.00 | 0.00 | 0.00 | 99 | 1013.1 |
| 20260507050138 | 44 | 18 | 1.0 | 1.0 | 0.00 | 0.00 | 0.00 | 99 | 1012.9 |
| 20260507045635 | 44 | 49 | 0.0 | 0.0 | 0.00 | 0.00 | 0.00 | 99 | 1012.8 |
| 20260507045132 | 44 | 8 | 0.0 | 0.0 | 0.00 | 0.00 | 0.00 | 99 | 1012.9 |
| 20260507044629 | 44 | 252 | 0.0 | 1.0 | 0.00 | 0.00 | 0.00 | 99 | 1012.9 |
| 20260507044126 | 44 | 313 | 1.0 | 1.0 | 0.00 | 0.00 | 0.00 | 99 | 1012.9 |
| 20260507043621 | 45 | 2 | 0.0 | 1.0 | 0.00 | 0.00 | 0.00 | 99 | 1012.8 |
| 20260507043119 | 45 | 344 | 1.0 | 1.0 | 0.00 | 0.00 | 0.00 | 99 | 1012.5 |
| 20260507042615 | 45 | 337 | 1.0 | 1.0 | 0.00 | 0.00 | 0.00 | 99 | 1012.7 |
| 20260507042110 | 45 | 345 | 1.0 | 1.0 | 0.00 | 0.00 | 0.00 | 99 | 1012.8 |
| 20260507041607 | 45 | 340 | 0.0 | 0.0 | 0.00 | 0.00 | 0.00 | 99 | 1013.0 |
| 20260507041104 | 45 | 322 | 1.0 | 1.0 | 0.00 | 0.00 | 0.00 | 99 | 1012.8 |
| 20260507040601 | 45 | 335 | 0.0 | 0.0 | 0.00 | 0.00 | 0.00 | 99 | 1012.6 |
| 20260507040057 | 45 | 336 | 0.0 | 0.0 | 0.00 | 0.30 | 0.30 | 99 | 1012.5 |
| 20260507035553 | 45 | 339 | 0.0 | 0.0 | 0.00 | 0.30 | 0.30 | 99 | 1012.6 |
| 20260507035049 | 45 | 340 | 0.0 | 0.0 | 0.00 | 0.30 | 0.30 | 99 | 1012.9 |
| 20260507034546 | 45 | 342 | 0.0 | 0.0 | 0.00 | 0.30 | 0.30 | 99 | 1012.8 |
| 20260507034044 | 45 | 343 | 0.0 | 0.0 | 0.00 | 0.30 | 0.30 | 99 | 1012.8 |
| 20260507033542 | 45 | 343 | 0.0 | 0.0 | 0.00 | 0.30 | 0.30 | 99 | 1012.8 |
| 20260507033039 | 45 | 344 | 0.0 | 1.0 | 0.00 | 0.30 | 0.30 | 99 | 1013.1 |
| 20260507032536 | 46 | 343 | 0.0 | 0.0 | 0.00 | 0.30 | 0.30 | 99 | 1013.2 |
| 20260507032032 | 46 | 343 | 0.0 | 0.0 | 0.00 | 0.30 | 0.30 | 99 | 1013.3 |
| 20260507031528 | 46 | 343 | 0.0 | 0.0 | 0.00 | 0.30 | 0.30 | 99 | 1013.1 |
| 20260507031026 | 46 | 344 | 0.0 | 0.0 | 0.00 | 0.30 | 0.30 | 99 | 1013.2 |
| 20260507030522 | 46 | 344 | 0.0 | 0.0 | 0.00 | 0.30 | 0.30 | 99 | 1013.0 |
| 20260507030021 | 46 | 345 | 0.0 | 0.0 | 0.00 | 0.30 | 0.30 | 99 | 1012.7 |
| 20260507025517 | 45 | 344 | 0.0 | 0.0 | 0.00 | 0.30 | 0.30 | 99 | 1012.7 |
| 20260507025015 | 45 | 345 | 0.0 | 0.0 | 0.00 | 0.30 | 0.30 | 99 | 1012.9 |
| 20260507024512 | 45 | 345 | 0.0 | 0.0 | 0.00 | 0.30 | 0.30 | 99 | 1012.9 |
| 20260507024009 | 45 | 345 | 0.0 | 0.0 | 0.00 | 0.30 | 0.30 | 99 | 1012.7 |
| 20260507023505 | 45 | 346 | 0.0 | 0.0 | 0.00 | 0.30 | 0.30 | 99 | 1012.6 |
| 20260507023002 | 45 | 330 | 0.0 | 0.0 | 0.00 | 0.30 | 0.30 | 99 | 1012.5 |
| 20260507022459 | 46 | 348 | 0.0 | 0.0 | 0.00 | 0.30 | 0.30 | 99 | 1012.6 |
| 20260507021954 | 45 | 349 | 0.0 | 0.0 | 0.00 | 0.30 | 0.30 | 99 | 1012.8 |
| 20260507021450 | 45 | 345 | 0.0 | 0.0 | 0.00 | 0.30 | 0.30 | 99 | 1012.5 |
| 20260507020947 | 46 | 343 | 0.0 | 0.0 | 0.00 | 0.30 | 0.30 | 99 | 1012.6 |
| 20260507020444 | 45 | 336 | 1.0 | 1.0 | 0.00 | 0.30 | 0.30 | 99 | 1012.6 |
| 20260507015941 | 45 | 359 | 1.0 | 1.0 | 0.00 | 0.30 | 0.30 | 99 | 1012.7 |
| 20260507015440 | 45 | 1 | 0.0 | 0.0 | 0.00 | 0.30 | 0.30 | 99 | 1012.3 |
| 20260507014936 | 45 | 353 | 0.0 | 0.0 | 0.00 | 0.30 | 0.30 | 99 | 1012.4 |
| 20260507014433 | 46 | 353 | 0.0 | 0.0 | 0.00 | 0.30 | 0.30 | 99 | 1012.4 |
| 20260507013929 | 45 | 357 | 0.0 | 0.0 | 0.00 | 0.30 | 0.30 | 99 | 1012.3 |
| 20260507013426 | 45 | 338 | 0.0 | 0.0 | 0.00 | 0.30 | 0.30 | 99 | 1012.1 |
| 20260507012924 | 45 | 333 | 1.0 | 1.0 | 0.00 | 0.30 | 0.30 | 99 | 1012.7 |
| 20260507012420 | 45 | 5 | 0.0 | 0.0 | 0.00 | 0.30 | 0.30 | 99 | 1012.2 |
| 20260507011917 | 45 | 14 | 0.0 | 0.0 | 0.00 | 0.30 | 0.30 | 99 | 1011.6 |
| 20260507011414 | 45 | 350 | 0.0 | 0.0 | 0.00 | 0.30 | 0.30 | 99 | 1011.7 |
| 20260507010914 | 45 | 350 | 0.0 | 0.0 | 0.00 | 0.30 | 0.30 | 99 | 1011.9 |
| 20260507010409 | 45 | 9 | 0.0 | 0.0 | 0.00 | 0.30 | 0.30 | 99 | 1011.9 |
| 20260507005907 | 45 | 18 | 0.0 | 0.0 | 0.00 | 0.30 | 0.30 | 99 | 1012.1 |
| 20260507005403 | 45 | 350 | 1.0 | 1.0 | 0.00 | 0.30 | 0.30 | 99 | 1012.2 |
| 20260507004900 | 45 | 14 | 0.0 | 0.0 | 0.00 | 0.30 | 0.30 | 99 | 1012.1 |
| 20260507004357 | 45 | 3 | 1.0 | 1.0 | 0.00 | 0.30 | 0.30 | 99 | 1012.2 |
| 20260507003854 | 45 | 1 | 1.0 | 1.0 | 0.00 | 0.30 | 0.30 | 99 | 1012.1 |
| 20260507003349 | 45 | 8 | 0.0 | 0.0 | 0.00 | 0.30 | 0.30 | 98 | 1012.3 |
| 20260507002845 | 45 | 351 | 1.0 | 1.0 | 0.00 | 0.30 | 0.30 | 98 | 1012.3 |
| 20260507002341 | 46 | 341 | 1.0 | 2.0 | 0.00 | 0.30 | 0.30 | 98 | 1012.2 |
| 20260507001838 | 46 | 311 | 2.0 | 2.0 | 0.00 | 0.30 | 0.30 | 98 | 1012.3 |
| 20260507001335 | 46 | 352 | 2.0 | 2.0 | 0.00 | 0.30 | 0.30 | 98 | 1012.2 |
| 20260507000832 | 46 | 352 | 1.0 | 1.0 | 0.00 | 0.30 | 0.30 | 98 | 1012.6 |
| 20260507000328 | 46 | 334 | 1.0 | 2.0 | 0.00 | 0.30 | 0.30 | 98 | 1012.7 |
| 20260506235824 | 46 | 321 | 1.0 | 2.0 | 0.00 | 0.30 | 0.30 | 98 | 1012.5 |
| 20260506235321 | 46 | 336 | 2.0 | 2.0 | 0.00 | 0.30 | 0.30 | 98 | 1012.4 |
| 20260506234817 | 46 | 6 | 1.0 | 1.0 | 0.00 | 0.30 | 0.30 | 98 | 1012.2 |
| 20260506234315 | 46 | 350 | 1.0 | 1.0 | 0.00 | 0.30 | 0.30 | 98 | 1012.2 |
| 20260506233812 | 46 | 338 | 2.0 | 2.0 | 0.00 | 0.30 | 0.30 | 98 | 1012.1 |
| 20260506233308 | 46 | 357 | 1.0 | 1.0 | 0.00 | 0.30 | 0.30 | 99 | 1012.1 |
| 20260506232805 | 46 | 329 | 2.0 | 2.0 | 0.00 | 0.30 | 0.30 | 99 | 1011.9 |
| 20260506232300 | 46 | 32 | 0.0 | 0.0 | 0.00 | 0.30 | 0.30 | 99 | 1011.6 |
| 20260506231757 | 46 | 305 | 3.0 | 3.0 | 0.00 | 0.30 | 0.30 | 99 | 1012.3 |
| 20260506231256 | 46 | 7 | 0.0 | 1.0 | 0.00 | 0.30 | 0.30 | 99 | 1012.1 |
| 20260506230753 | 46 | 257 | 0.0 | 1.0 | 0.00 | 0.30 | 0.30 | 99 | 1012.1 |
| 20260506230249 | 47 | 347 | 2.0 | 2.0 | 0.00 | 0.30 | 0.30 | 99 | 1012.1 |
| 20260506225746 | 47 | 338 | 3.0 | 3.0 | 0.00 | 0.30 | 0.30 | 99 | 1011.6 |
| 20260506225243 | 47 | 59 | 1.0 | 1.0 | 0.00 | 0.30 | 0.30 | 99 | 1011.9 |
| 20260506224739 | 47 | 359 | 1.0 | 1.0 | 0.00 | 0.30 | 0.30 | 99 | 1011.6 |
| 20260506224237 | 47 | 313 | 1.0 | 2.0 | 0.00 | 0.30 | 0.30 | 99 | 1011.7 |
| 20260506223733 | 47 | 11 | 1.0 | 1.0 | 0.00 | 0.30 | 0.30 | 99 | 1011.7 |
| 20260506223228 | 47 | 298 | 2.0 | 2.0 | 0.00 | 0.30 | 0.30 | 99 | 1011.4 |
| 20260506222726 | 48 | 3 | 0.0 | 1.0 | 0.00 | 0.30 | 0.30 | 99 | 1011.6 |
| 20260506222221 | 48 | 302 | 2.0 | 3.0 | 0.00 | 0.30 | 0.30 | 99 | 1011.6 |
| 20260506221719 | 48 | 333 | 3.0 | 3.0 | 0.00 | 0.30 | 0.30 | 99 | 1011.4 |
| 20260506221217 | 48 | 311 | 3.0 | 3.0 | 0.00 | 0.30 | 0.30 | 99 | 1011.4 |
| 20260506220714 | 48 | 334 | 1.0 | 2.0 | 0.00 | 0.30 | 0.30 | 99 | 1011.6 |
| 20260506220208 | 48 | 330 | 2.0 | 2.0 | 0.00 | 0.30 | 0.30 | 99 | 1011.4 |
| 20260506215705 | 48 | 282 | 2.0 | 2.0 | 0.00 | 0.30 | 0.30 | 99 | 1011.4 |
| 20260506215201 | 48 | 354 | 1.0 | 1.0 | 0.00 | 0.30 | 0.30 | 99 | 1011.5 |
| 20260506214658 | 48 | 63 | 0.0 | 1.0 | 0.00 | 0.30 | 0.30 | 99 | 1011.3 |
| 20260506214155 | 48 | 333 | 1.0 | 2.0 | 0.00 | 0.30 | 0.30 | 99 | 1011.3 |
| 20260506213654 | 48 | 276 | 5.0 | 6.0 | 0.00 | 0.30 | 0.30 | 99 | 1011.0 |
| 20260506213150 | 48 | 296 | 3.0 | 3.0 | 0.00 | 0.30 | 0.30 | 99 | 1011.0 |
| 20260506212648 | 48 | 325 | 2.0 | 3.0 | 0.00 | 0.30 | 0.30 | 99 | 1011.0 |
| 20260506212142 | 48 | 20 | 1.0 | 2.0 | 0.00 | 0.30 | 0.30 | 99 | 1010.7 |
| 20260506211638 | 48 | 310 | 3.0 | 3.0 | 0.00 | 0.30 | 0.30 | 99 | 1010.8 |